| time (UTC) | temp F | wind direction | speed MPH | gust MPH | rain 1hr in | rain 24hr in | rain mn in | humidity % | barometer mb |
| 20260902030022 | 76 | 220 | 2.0 | 10.0 | 0.00 | 0.00 | 0.00 | 44 | 1005.3 |
| 20260902025531 | 76 | 204 | 1.0 | 10.0 | 0.00 | 0.00 | 0.00 | 44 | 1005.2 |
| 20260902025033 | 76 | 169 | 2.0 | 10.0 | 0.00 | 0.00 | 0.00 | 43 | 1005.2 |
| 20260902024523 | 76 | 243 | 2.0 | 10.0 | 0.00 | 0.00 | 0.00 | 43 | 1005.1 |
| 20260902024005 | 77 | 183 | 2.0 | 8.0 | 0.00 | 0.00 | 0.00 | 42 | 1005.0 |
| 20260902023509 | 77 | 225 | 3.0 | 9.0 | 0.00 | 0.00 | 0.00 | 42 | 1005.0 |
| 20260902023006 | 77 | 263 | 3.0 | 9.0 | 0.00 | 0.00 | 0.00 | 41 | 1004.9 |
| 20260902022501 | 77 | 206 | 3.0 | 10.0 | 0.00 | 0.00 | 0.00 | 40 | 1004.9 |
| 20260902021959 | 78 | 194 | 3.0 | 10.0 | 0.00 | 0.00 | 0.00 | 40 | 1004.8 |
| 20260902021508 | 78 | 168 | 3.0 | 11.0 | 0.00 | 0.00 | 0.00 | 39 | 1004.8 |
| 20260902020957 | 78 | 236 | 4.0 | 11.0 | 0.00 | 0.00 | 0.00 | 39 | 1004.9 |
| 20260902020502 | 78 | 215 | 4.0 | 11.0 | 0.00 | 0.00 | 0.00 | 39 | 1004.8 |
| 20260902015942 | 78 | 182 | 4.0 | 11.0 | 0.00 | 0.00 | 0.00 | 38 | 1004.8 |
| 20260902014821 | 79 | 201 | 4.0 | 12.0 | 0.00 | 0.00 | 0.00 | 38 | 1004.9 |
| 20260902014318 | 79 | 149 | 4.0 | 13.0 | 0.00 | 0.00 | 0.00 | 39 | 1004.8 |
| 20260902013806 | 79 | 227 | 4.0 | 13.0 | 0.00 | 0.00 | 0.00 | 39 | 1004.8 |
| 20260902013305 | 79 | 179 | 4.0 | 13.0 | 0.00 | 0.00 | 0.00 | 38 | 1004.8 |
| 20260902012801 | 79 | 169 | 3.0 | 13.0 | 0.00 | 0.00 | 0.00 | 39 | 1004.8 |
| 20260902012248 | 80 | 255 | 4.0 | 12.0 | 0.00 | 0.00 | 0.00 | 38 | 1005.0 |
| 20260902011744 | 80 | 256 | 5.0 | 14.0 | 0.00 | 0.00 | 0.00 | 38 | 1004.9 |
| 20260902011243 | 80 | 243 | 5.0 | 15.0 | 0.00 | 0.00 | 0.00 | 38 | 1005.1 |
| 20260902010111 | 81 | 274 | 5.0 | 18.0 | 0.00 | 0.00 | 0.00 | 38 | 1005.2 |
| 20260902005619 | 81 | 232 | 6.0 | 18.0 | 0.00 | 0.00 | 0.00 | 36 | 1005.3 |
| 20260902005128 | 81 | 224 | 5.0 | 18.0 | 0.00 | 0.00 | 0.00 | 37 | 1005.4 |
| 20260902004635 | 81 | 166 | 4.0 | 18.0 | 0.00 | 0.00 | 0.00 | 36 | 1005.4 |
| 20260902004136 | 81 | 182 | 3.0 | 14.0 | 0.00 | 0.00 | 0.00 | 37 | 1005.4 |
| 20260902003631 | 81 | 239 | 4.0 | 14.0 | 0.00 | 0.00 | 0.00 | 37 | 1005.5 |
| 20260902003142 | 81 | 182 | 5.0 | 14.0 | 0.00 | 0.00 | 0.00 | 37 | 1005.5 |
| 20260902002632 | 81 | 173 | 5.0 | 14.0 | 0.00 | 0.00 | 0.00 | 36 | 1005.6 |
| 20260902002129 | 82 | 213 | 4.0 | 12.0 | 0.00 | 0.00 | 0.00 | 36 | 1005.5 |
| 20260902001027 | 81 | 168 | 5.0 | 15.0 | 0.00 | 0.02 | 0.00 | 36 | 1005.7 |
| 20260902000515 | 81 | 216 | 5.0 | 15.0 | 0.00 | 0.02 | 0.00 | 36 | 1005.6 |
| 20260901235335 | 82 | 182 | 4.0 | 15.0 | 0.00 | 0.04 | 0.00 | 35 | 1005.7 |
| 20260901234834 | 81 | 184 | 4.0 | 14.0 | 0.00 | 0.05 | 0.00 | 36 | 1005.7 |
| 20260901234336 | 82 | 187 | 3.0 | 14.0 | 0.00 | 0.07 | 0.00 | 36 | 1005.8 |
| 20260901233845 | 82 | 166 | 3.0 | 14.0 | 0.00 | 0.07 | 0.00 | 35 | 1005.9 |
| 20260901233331 | 84 | 257 | 3.0 | 9.0 | 0.00 | 0.09 | 0.00 | 35 | 1005.8 |
| 20260901232831 | 83 | 267 | 4.0 | 13.0 | 0.00 | 0.09 | 0.00 | 34 | 1006.0 |
| 20260901232314 | 83 | 181 | 4.0 | 13.0 | 0.00 | 0.12 | 0.00 | 35 | 1006.0 |
| 20260901231817 | 82 | 131 | 4.0 | 13.0 | 0.00 | 0.14 | 0.00 | 35 | 1006.0 |
| 20260901231310 | 83 | 71 | 4.0 | 13.0 | 0.00 | 0.14 | 0.00 | 35 | 1005.8 |
| 20260901230148 | 83 | 192 | 2.0 | 11.0 | 0.00 | 0.14 | 0.00 | 35 | 1006.1 |
| 20260901225643 | 83 | 278 | 3.0 | 11.0 | 0.00 | 0.14 | 0.00 | 36 | 1006.1 |
| 20260901224503 | 82 | 256 | 5.0 | 13.0 | 0.00 | 0.14 | 0.00 | 36 | 1006.4 |
| 20260901223953 | 83 | 237 | 4.0 | 13.0 | 0.00 | 0.14 | 0.00 | 36 | 1006.5 |
| 20260901223500 | 83 | 216 | 5.0 | 13.0 | 0.00 | 0.14 | 0.00 | 36 | 1006.6 |
| 20260901223008 | 83 | 164 | 6.0 | 15.0 | 0.00 | 0.14 | 0.00 | 35 | 1006.6 |
| 20260901222512 | 83 | 111 | 5.0 | 15.0 | 0.00 | 0.14 | 0.00 | 35 | 1006.7 |
| 20260901222002 | 83 | 157 | 4.0 | 15.0 | 0.00 | 0.14 | 0.00 | 34 | 1006.8 |
| 20260901221445 | 83 | 173 | 3.0 | 15.0 | 0.00 | 0.14 | 0.00 | 35 | 1006.8 |
| 20260901220941 | 83 | 321 | 3.0 | 14.0 | 0.00 | 0.14 | 0.00 | 36 | 1007.0 |
| 20260901215821 | 81 | 182 | 5.0 | 16.0 | 0.00 | 0.14 | 0.00 | 35 | 1007.1 |
| 20260901215309 | 82 | 221 | 6.0 | 19.0 | 0.00 | 0.14 | 0.00 | 34 | 1007.2 |
| 20260901214808 | 83 | 166 | 5.0 | 19.0 | 0.00 | 0.14 | 0.00 | 35 | 1007.2 |
| 20260901214315 | 83 | 138 | 6.0 | 19.0 | 0.00 | 0.14 | 0.00 | 35 | 1007.3 |
| 20260901213822 | 83 | 247 | 6.0 | 19.0 | 0.00 | 0.14 | 0.00 | 34 | 1007.1 |
| 20260901213318 | 83 | 116 | 5.0 | 13.0 | 0.00 | 0.14 | 0.00 | 36 | 1007.4 |
| 20260901212818 | 83 | 274 | 4.0 | 16.0 | 0.00 | 0.14 | 0.00 | 36 | 1007.4 |
| 20260901212316 | 82 | 231 | 5.0 | 16.0 | 0.00 | 0.14 | 0.00 | 38 | 1007.6 |
| 20260901211801 | 82 | 260 | 7.0 | 16.0 | 0.00 | 0.14 | 0.00 | 37 | 1007.7 |
| 20260901211241 | 82 | 232 | 5.0 | 16.0 | 0.00 | 0.14 | 0.00 | 37 | 1007.7 |
| 20260901210732 | 82 | 248 | 4.0 | 10.0 | 0.00 | 0.14 | 0.00 | 38 | 1007.8 |
| 20260901205549 | 82 | 115 | 5.0 | 16.0 | 0.00 | 0.14 | 0.00 | 38 | 1008.1 |
| 20260901205058 | 82 | 188 | 4.0 | 16.0 | 0.00 | 0.14 | 0.00 | 38 | 1008.2 |
| 20260901204558 | 82 | 215 | 3.0 | 16.0 | 0.00 | 0.14 | 0.00 | 39 | 1008.3 |
| 20260901204105 | 81 | 219 | 4.0 | 16.0 | 0.00 | 0.14 | 0.00 | 40 | 1008.4 |
| 20260901202311 | 79 | 217 | 3.0 | 13.0 | 0.00 | 0.14 | 0.00 | 41 | 1008.8 |
| 20260901195915 | 79 | 265 | 4.0 | 11.0 | 0.00 | 0.14 | 0.00 | 43 | 1009.1 |
| 20260901194744 | 79 | 153 | 5.0 | 19.0 | 0.00 | 0.14 | 0.00 | 43 | 1009.3 |
| 20260901194249 | 79 | 230 | 6.0 | 19.0 | 0.00 | 0.14 | 0.00 | 43 | 1009.4 |
| 20260901193123 | 78 | 180 | 6.0 | 19.0 | 0.00 | 0.14 | 0.00 | 44 | 1009.4 |
| 20260901192617 | 77 | 169 | 6.0 | 17.0 | 0.00 | 0.14 | 0.00 | 45 | 1009.4 |
| 20260901192124 | 77 | 182 | 7.0 | 18.0 | 0.00 | 0.14 | 0.00 | 44 | 1009.5 |
| 20260901191630 | 77 | 157 | 6.0 | 18.0 | 0.00 | 0.14 | 0.00 | 45 | 1009.6 |
| 20260901191118 | 77 | 168 | 6.0 | 18.0 | 0.00 | 0.14 | 0.00 | 46 | 1009.6 |
| 20260901190616 | 76 | 197 | 7.0 | 18.0 | 0.00 | 0.14 | 0.00 | 45 | 1009.8 |
| 20260901190121 | 77 | 223 | 6.0 | 17.0 | 0.00 | 0.14 | 0.00 | 45 | 1009.8 |
| 20260901185631 | 76 | 183 | 5.0 | 17.0 | 0.00 | 0.14 | 0.00 | 46 | 1009.8 |
| 20260901184508 | 76 | 171 | 7.0 | 19.0 | 0.00 | 0.14 | 0.00 | 46 | 1009.9 |
| 20260901183957 | 76 | 156 | 8.0 | 20.0 | 0.00 | 0.14 | 0.00 | 45 | 1009.9 |
| 20260901182827 | 76 | 181 | 9.0 | 20.0 | 0.00 | 0.14 | 0.00 | 45 | 1009.9 |
| 20260901181716 | 76 | 278 | 7.0 | 19.0 | 0.00 | 0.14 | 0.00 | 46 | 1010.1 |
| 20260901180558 | 75 | 173 | 9.0 | 22.0 | 0.00 | 0.14 | 0.00 | 46 | 1010.2 |
| 20260901180041 | 75 | 182 | 8.0 | 22.0 | 0.00 | 0.14 | 0.00 | 46 | 1010.2 |
| 20260901175524 | 75 | 180 | 8.0 | 22.0 | 0.00 | 0.14 | 0.00 | 47 | 1010.2 |
| 20260901175013 | 75 | 161 | 9.0 | 21.0 | 0.00 | 0.14 | 0.00 | 46 | 1010.3 |
| 20260901174515 | 75 | 147 | 9.0 | 21.0 | 0.00 | 0.14 | 0.00 | 46 | 1010.3 |
| 20260901174021 | 76 | 152 | 7.0 | 21.0 | 0.00 | 0.14 | 0.00 | 44 | 1010.4 |
| 20260901172855 | 75 | 156 | 7.0 | 19.0 | 0.00 | 0.14 | 0.00 | 46 | 1010.4 |
| 20260901172356 | 75 | 253 | 7.0 | 19.0 | 0.00 | 0.14 | 0.00 | 46 | 1010.4 |
| 20260901171903 | 75 | 173 | 7.0 | 19.0 | 0.00 | 0.14 | 0.00 | 47 | 1010.5 |
| 20260901171400 | 75 | 242 | 7.0 | 19.0 | 0.00 | 0.14 | 0.00 | 45 | 1010.6 |
| 20260901170855 | 76 | 232 | 7.0 | 19.0 | 0.00 | 0.14 | 0.00 | 46 | 1010.5 |
| 20260901165736 | 75 | 165 | 7.0 | 19.0 | 0.00 | 0.14 | 0.00 | 48 | 1010.5 |
| 20260901165225 | 74 | 198 | 9.0 | 19.0 | 0.00 | 0.14 | 0.00 | 51 | 1010.6 |
| 20260901164708 | 73 | 198 | 8.0 | 18.0 | 0.00 | 0.14 | 0.00 | 49 | 1010.6 |
| 20260901164154 | 72 | 192 | 6.0 | 18.0 | 0.00 | 0.14 | 0.00 | 52 | 1010.5 |
| 20260901163641 | 71 | 206 | 6.0 | 17.0 | 0.00 | 0.14 | 0.00 | 53 | 1010.5 |
| 20260901163124 | 71 | 178 | 6.0 | 17.0 | 0.00 | 0.14 | 0.00 | 53 | 1010.4 |
| 20260901162011 | 71 | 256 | 7.0 | 15.0 | 0.00 | 0.14 | 0.00 | 52 | 1010.5 |
| 20260901161517 | 71 | 270 | 7.0 | 15.0 | 0.00 | 0.14 | 0.00 | 52 | 1010.5 |
| 20260901161020 | 71 | 196 | 6.0 | 16.0 | 0.00 | 0.14 | 0.00 | 52 | 1010.5 |
| 20260901155904 | 71 | 249 | 7.0 | 16.0 | 0.00 | 0.14 | 0.00 | 51 | 1010.4 |
| 20260901155346 | 71 | 166 | 7.0 | 15.0 | 0.00 | 0.14 | 0.00 | 51 | 1010.6 |
| 20260901154230 | 71 | 247 | 5.0 | 18.0 | 0.00 | 0.14 | 0.00 | 53 | 1010.5 |
| 20260901153713 | 70 | 240 | 6.0 | 18.0 | 0.00 | 0.14 | 0.00 | 54 | 1010.5 |
| 20260901153215 | 70 | 176 | 6.0 | 16.0 | 0.00 | 0.14 | 0.00 | 54 | 1010.7 |
| 20260901152715 | 70 | 244 | 7.0 | 16.0 | 0.00 | 0.14 | 0.00 | 54 | 1010.6 |
| 20260901152220 | 70 | 263 | 7.0 | 16.0 | 0.00 | 0.14 | 0.00 | 54 | 1010.7 |
| 20260901151712 | 70 | 267 | 6.0 | 16.0 | 0.00 | 0.14 | 0.00 | 55 | 1010.7 |
| 20260901151208 | 69 | 183 | 5.0 | 14.0 | 0.00 | 0.14 | 0.00 | 56 | 1010.7 |
| 20260901150704 | 69 | 163 | 5.0 | 13.0 | 0.00 | 0.14 | 0.00 | 56 | 1010.6 |
| 20260901150153 | 68 | 172 | 5.0 | 13.0 | 0.00 | 0.14 | 0.00 | 58 | 1010.6 |
| 20260901145702 | 68 | 257 | 5.0 | 13.0 | 0.00 | 0.14 | 0.00 | 58 | 1010.7 |
| 20260901145211 | 68 | 154 | 4.0 | 13.0 | 0.00 | 0.14 | 0.00 | 59 | 1010.9 |
| 20260901144701 | 67 | 225 | 3.0 | 13.0 | 0.00 | 0.14 | 0.00 | 59 | 1010.8 |
| 20260901144153 | 67 | 261 | 3.0 | 12.0 | 0.00 | 0.14 | 0.00 | 59 | 1010.9 |
| 20260901143635 | 67 | 271 | 3.0 | 12.0 | 0.00 | 0.14 | 0.00 | 60 | 1010.9 |
| 20260901143129 | 67 | 260 | 4.0 | 12.0 | 0.00 | 0.14 | 0.00 | 60 | 1011.0 |
| 20260901142624 | 66 | 171 | 3.0 | 11.0 | 0.00 | 0.14 | 0.00 | 60 | 1010.9 |
| 20260901141440 | 65 | 268 | 2.0 | 10.0 | 0.00 | 0.14 | 0.00 | 62 | 1010.9 |
| 20260901140939 | 65 | 225 | 2.0 | 10.0 | 0.00 | 0.14 | 0.00 | 62 | 1010.9 |
| 20260901140424 | 64 | 206 | 2.0 | 10.0 | 0.00 | 0.14 | 0.00 | 63 | 1010.8 |
| 20260901135913 | 63 | 206 | 2.0 | 10.0 | 0.00 | 0.14 | 0.00 | 64 | 1010.6 |
| 20260901133423 | 61 | 218 | 0.0 | 3.0 | 0.00 | 0.14 | 0.00 | 69 | 1010.7 |
| 20260901131630 | 60 | 261 | 0.0 | 0.0 | 0.00 | 0.14 | 0.00 | 71 | 1010.5 |
| 20260901130446 | 60 | 358 | 0.0 | 0.0 | 0.00 | 0.14 | 0.00 | 70 | 1010.5 |
| 20260901125327 | 61 | 310 | 0.0 | 0.0 | 0.00 | 0.14 | 0.00 | 69 | 1010.5 |
| 20260901124210 | 62 | 259 | 0.0 | 0.0 | 0.00 | 0.14 | 0.00 | 67 | 1010.5 |
| 20260901123659 | 62 | 151 | 1.0 | 7.0 | 0.00 | 0.14 | 0.00 | 66 | 1010.5 |
| 20260901121921 | 60 | 225 | 0.0 | 3.0 | 0.00 | 0.14 | 0.00 | 71 | 1010.6 |
| 20260901121412 | 60 | 236 | 0.0 | 0.0 | 0.00 | 0.14 | 0.00 | 73 | 1010.6 |
| 20260901120913 | 60 | 340 | 0.0 | 1.0 | 0.00 | 0.14 | 0.00 | 73 | 1010.6 |
| 20260901120359 | 61 | 318 | 0.0 | 0.0 | 0.00 | 0.14 | 0.00 | 71 | 1010.6 |
| 20260901115243 | 62 | 238 | 0.0 | 5.0 | 0.00 | 0.14 | 0.00 | 67 | 1010.4 |
| 20260901114749 | 62 | 250 | 1.0 | 6.0 | 0.00 | 0.14 | 0.00 | 67 | 1010.3 |
| 20260901114246 | 62 | 234 | 1.0 | 6.0 | 0.00 | 0.14 | 0.00 | 66 | 1010.3 |
| 20260901113734 | 62 | 168 | 2.0 | 8.0 | 0.00 | 0.14 | 0.00 | 66 | 1010.3 |
| 20260901113228 | 62 | 305 | 2.0 | 8.0 | 0.00 | 0.14 | 0.00 | 67 | 1010.2 |
| 20260901112711 | 62 | 200 | 1.0 | 8.0 | 0.00 | 0.14 | 0.00 | 67 | 1010.2 |
| 20260901112156 | 62 | 275 | 2.0 | 8.0 | 0.00 | 0.14 | 0.00 | 67 | 1010.1 |
| 20260901111022 | 62 | 166 | 2.0 | 8.0 | 0.00 | 0.14 | 0.00 | 67 | 1010.2 |
| 20260901110521 | 62 | 191 | 2.0 | 7.0 | 0.00 | 0.14 | 0.00 | 67 | 1010.3 |
| 20260901110015 | 62 | 274 | 2.0 | 8.0 | 0.00 | 0.14 | 0.00 | 67 | 1010.4 |
| 20260901105513 | 62 | 247 | 2.0 | 8.0 | 0.00 | 0.14 | 0.00 | 67 | 1010.3 |
| 20260901105004 | 62 | 269 | 2.0 | 12.0 | 0.00 | 0.14 | 0.00 | 68 | 1010.3 |
| 20260901103233 | 62 | 171 | 2.0 | 12.0 | 0.00 | 0.14 | 0.00 | 68 | 1010.5 |
| 20260901102726 | 62 | 262 | 2.0 | 9.0 | 0.00 | 0.14 | 0.00 | 69 | 1010.4 |
| 20260901102212 | 62 | 248 | 2.0 | 9.0 | 0.00 | 0.14 | 0.00 | 69 | 1010.6 |
| 20260901101046 | 62 | 216 | 4.0 | 13.0 | 0.00 | 0.14 | 0.00 | 71 | 1010.4 |
| 20260901100546 | 62 | 253 | 4.0 | 13.0 | 0.00 | 0.14 | 0.00 | 71 | 1010.4 |
| 20260901095423 | 62 | 177 | 5.0 | 13.0 | 0.00 | 0.14 | 0.00 | 72 | 1010.5 |
| 20260901094253 | 62 | 270 | 4.0 | 12.0 | 0.00 | 0.14 | 0.00 | 72 | 1010.5 |
| 20260901093803 | 62 | 163 | 3.0 | 9.0 | 0.00 | 0.14 | 0.00 | 71 | 1010.6 |
| 20260901093244 | 62 | 246 | 2.0 | 12.0 | 0.00 | 0.14 | 0.00 | 71 | 1010.6 |
| 20260901092733 | 62 | 187 | 2.0 | 12.0 | 0.00 | 0.14 | 0.00 | 70 | 1010.6 |
| 20260901092233 | 62 | 238 | 3.0 | 12.0 | 0.00 | 0.14 | 0.00 | 70 | 1010.7 |
| 20260901091727 | 62 | 265 | 3.0 | 12.0 | 0.00 | 0.14 | 0.00 | 70 | 1010.6 |
| 20260901091225 | 62 | 197 | 3.0 | 11.0 | 0.00 | 0.14 | 0.00 | 69 | 1010.6 |
| 20260901090728 | 62 | 198 | 2.0 | 9.0 | 0.00 | 0.14 | 0.00 | 69 | 1010.6 |
| 20260901090231 | 62 | 272 | 2.0 | 9.0 | 0.00 | 0.14 | 0.00 | 69 | 1010.5 |
| 20260901085732 | 62 | 261 | 2.0 | 10.0 | 0.00 | 0.14 | 0.00 | 68 | 1010.4 |
| 20260901085229 | 62 | 175 | 2.0 | 10.0 | 0.00 | 0.14 | 0.00 | 68 | 1010.5 |
| 20260901084101 | 63 | 266 | 2.0 | 10.0 | 0.00 | 0.14 | 0.00 | 68 | 1010.6 |
| 20260901083546 | 63 | 249 | 2.0 | 7.0 | 0.00 | 0.14 | 0.00 | 67 | 1010.6 |
| 20260901083041 | 63 | 275 | 2.0 | 7.0 | 0.00 | 0.14 | 0.00 | 67 | 1010.7 |
| 20260901082528 | 63 | 206 | 1.0 | 6.0 | 0.00 | 0.14 | 0.00 | 67 | 1010.8 |
| 20260901082011 | 63 | 201 | 1.0 | 9.0 | 0.00 | 0.14 | 0.00 | 67 | 1010.7 |
| 20260901081459 | 63 | 156 | 1.0 | 9.0 | 0.00 | 0.14 | 0.00 | 67 | 1010.8 |
| 20260901081005 | 63 | 266 | 2.0 | 9.0 | 0.00 | 0.14 | 0.00 | 67 | 1010.9 |
| 20260901080500 | 63 | 234 | 2.0 | 9.0 | 0.00 | 0.14 | 0.00 | 67 | 1010.9 |
| 20260901080000 | 63 | 178 | 1.0 | 8.0 | 0.00 | 0.14 | 0.00 | 67 | 1010.9 |
| 20260901075505 | 63 | 201 | 1.0 | 6.0 | 0.00 | 0.14 | 0.00 | 68 | 1010.9 |
| 20260901075002 | 63 | 265 | 1.0 | 6.0 | 0.00 | 0.14 | 0.00 | 69 | 1010.8 |
| 20260901074447 | 63 | 236 | 1.0 | 6.0 | 0.00 | 0.14 | 0.00 | 68 | 1010.8 |
| 20260901073323 | 63 | 233 | 0.0 | 3.0 | 0.00 | 0.14 | 0.00 | 69 | 1011.1 |
| 20260901072156 | 63 | 293 | 0.0 | 0.0 | 0.00 | 0.14 | 0.00 | 70 | 1011.2 |
| 20260901071637 | 63 | 291 | 0.0 | 0.0 | 0.00 | 0.14 | 0.00 | 70 | 1011.2 |
| 20260901071144 | 63 | 358 | 0.0 | 1.0 | 0.00 | 0.14 | 0.00 | 70 | 1011.2 |
| 20260901070648 | 63 | 336 | 0.0 | 0.0 | 0.00 | 0.14 | 0.00 | 70 | 1011.3 |
| 20260901064919 | 64 | 234 | 0.0 | 3.0 | 0.00 | 0.14 | 0.00 | 68 | 1011.1 |
| 20260901064413 | 64 | 200 | 1.0 | 7.0 | 0.00 | 0.14 | 0.00 | 68 | 1011.1 |
| 20260901063310 | 64 | 163 | 2.0 | 10.0 | 0.00 | 0.14 | 0.00 | 68 | 1011.1 |
| 20260901062810 | 64 | 262 | 2.0 | 10.0 | 0.00 | 0.14 | 0.00 | 69 | 1011.1 |
| 20260901062313 | 64 | 174 | 3.0 | 10.0 | 0.00 | 0.14 | 0.00 | 69 | 1011.2 |
| 20260901061757 | 64 | 173 | 3.0 | 10.0 | 0.00 | 0.14 | 0.00 | 70 | 1011.2 |
| 20260901061250 | 64 | 248 | 2.0 | 9.0 | 0.00 | 0.14 | 0.00 | 71 | 1011.1 |
| 20260901060732 | 64 | 251 | 2.0 | 8.0 | 0.00 | 0.14 | 0.00 | 71 | 1011.0 |
| 20260901060215 | 64 | 263 | 3.0 | 8.0 | 0.00 | 0.14 | 0.00 | 70 | 1011.2 |
| 20260901055724 | 64 | 249 | 3.0 | 8.0 | 0.00 | 0.14 | 0.15 | 71 | 1011.1 |
| 20260901055209 | 64 | 260 | 2.0 | 9.0 | 0.00 | 0.14 | 0.15 | 72 | 1011.1 |
| 20260901054718 | 64 | 266 | 3.0 | 9.0 | 0.00 | 0.14 | 0.15 | 72 | 1011.0 |
| 20260901054211 | 64 | 165 | 3.0 | 12.0 | 0.00 | 0.14 | 0.15 | 71 | 1010.9 |
| 20260901053046 | 64 | 232 | 2.0 | 12.0 | 0.00 | 0.14 | 0.15 | 70 | 1011.3 |
| 20260901052538 | 64 | 255 | 2.0 | 12.0 | 0.00 | 0.14 | 0.15 | 70 | 1011.4 |
| 20260901052038 | 64 | 268 | 3.0 | 9.0 | 0.00 | 0.14 | 0.15 | 71 | 1011.5 |
| 20260901051538 | 64 | 273 | 4.0 | 12.0 | 0.00 | 0.14 | 0.15 | 71 | 1011.5 |
| 20260901051025 | 64 | 259 | 4.0 | 12.0 | 0.00 | 0.14 | 0.15 | 70 | 1011.5 |
| 20260901050521 | 64 | 254 | 5.0 | 12.0 | 0.00 | 0.14 | 0.15 | 69 | 1011.6 |
| 20260901045410 | 64 | 166 | 4.0 | 11.0 | 0.00 | 0.14 | 0.15 | 69 | 1011.5 |
| 20260901044856 | 64 | 264 | 2.0 | 11.0 | 0.00 | 0.14 | 0.15 | 69 | 1011.6 |
| 20260901044341 | 64 | 270 | 2.0 | 10.0 | 0.00 | 0.14 | 0.15 | 68 | 1011.7 |
| 20260901043238 | 63 | 264 | 1.0 | 7.0 | 0.00 | 0.14 | 0.15 | 69 | 1011.6 |
| 20260901042721 | 63 | 233 | 0.0 | 1.0 | 0.00 | 0.14 | 0.15 | 74 | 1011.6 |
| 20260901042232 | 63 | 309 | 0.0 | 2.0 | 0.00 | 0.14 | 0.15 | 74 | 1011.7 |
| 20260901041108 | 64 | 304 | 0.0 | 2.0 | 0.00 | 0.14 | 0.15 | 70 | 1011.6 |
| 20260901035930 | 64 | 237 | 0.0 | 5.0 | 0.00 | 0.14 | 0.15 | 67 | 1011.3 |
| 20260901035431 | 63 | 170 | 0.0 | 5.0 | 0.00 | 0.14 | 0.15 | 70 | 1011.2 |
| 20260901034936 | 63 | 172 | 0.0 | 3.0 | 0.00 | 0.14 | 0.15 | 72 | 1011.2 |
| 20260901033804 | 64 | 284 | 1.0 | 0.0 | 0.00 | 0.14 | 0.15 | 71 | 1011.4 |
| 20260901033301 | 64 | 251 | 2.0 | 12.0 | 0.00 | 0.14 | 0.15 | 70 | 1011.3 |
| 20260901032753 | 64 | 227 | 2.0 | 12.0 | 0.00 | 0.14 | 0.15 | 70 | 1011.3 |
| 20260901032247 | 64 | 232 | 2.0 | 12.0 | 0.00 | 0.14 | 0.15 | 70 | 1011.2 |
| 20260901031755 | 64 | 182 | 3.0 | 12.0 | 0.00 | 0.14 | 0.15 | 69 | 1011.3 |
| 20260901031255 | 64 | 280 | 3.0 | 8.0 | 0.00 | 0.14 | 0.15 | 69 | 1011.2 |
| 20260901030753 | 64 | 258 | 3.0 | 8.0 | 0.00 | 0.14 | 0.15 | 70 | 1011.1 |
| 20260901030247 | 64 | 220 | 2.0 | 7.0 | 0.00 | 0.14 | 0.15 | 70 | 1011.0 |